Regional Weather Roundup
Issued by NWS

Current Version | Previous Version | Text Only | Print | Product List | Glossary Off
Versions: 1 2 3 4 5 6 7 8 9 10 11 12 13 14 15 16 17 18 19 20 21 22 23 24 25 26 27 28 29 30 31 32 33 34 35 36 37 38 39 40 41 42 43 44 45 46 47 48 49 50

895
ASUS44 KJAN 031610
RWRMS

MISSISSIPPI HOURLY WEATHER ROUNDUP
NATIONAL WEATHER SERVICE JACKSON MS
1100 AM CDT TUE MAY 03 2016

NOTE: "FAIR: INDICATES FEW OR NO CLOUDS BELOW 12,000 FEET WITH NO
SIGNIFICANT WEATHER AND/OR OBSTRUCTIONS TO VISIBILITY.

MSZ001>002-007>008-010>013-018>021-025>028-034>036-031700-
NORTHWEST MISSISSIPPI

CITY           SKY/WX    TMP DP  RH WIND       PRES   REMARKS
BATESVILLE     FAIR      67  54  64 N6        30.04S
CLEVELAND      CLOUDY    65  58  78 N8        30.04S
GREENWOOD      PTSUNNY   68  55  63 N8        30.02S
GREENVILLE     PTSUNNY   65  55  70 N9        30.04S
OLIVE BRANCH   PTSUNNY   61  54  77 N6        30.04S
OXFORD         FAIR      63  54  72 NE7       30.04S
TUNICA         MOSUNNY   63  52  67 N10       30.06S
WINONA         CLOUDY    66  55  68 N3        30.01S
$$

MSZ003>006-009-014>017-022>024-029>033-037>039-031700-
NORTHEAST MISSISSIPPI

CITY           SKY/WX    TMP DP  RH WIND       PRES   REMARKS
COLUMBUS AFB   PTSUNNY   65  58  78 NW9       30.00S
CORINTH        PTSUNNY   64  50  59 NW6       30.01S
GOLDN TRIANGLE CLOUDY    66  55  68 N9        30.00S
STARKVILLE     CLOUDY    64  55  72 N3        30.00S
TUPELO         PTSUNNY   65  53  65 NW8       30.01S
$$

MSZ040-058-031700-
CENTRAL MISSISSIPPI

CITY           SKY/WX    TMP DP  RH WIND       PRES   REMARKS
JACKSON INTL   PTSUNNY   70  58  65 NW6       30.00S
JACKSON HAWKNS PTSUNNY   70  57  63 N3        30.01F
MADISON        FAIR      66  55  68 CALM      30.00F
MERIDIAN KEY   CLOUDY    69  56  62 N10       29.99S
MERIDIAN NAS   CLOUDY    69  56  62 N7        29.99F
VICKSBURG TVR  MOSUNNY   72  57  59 N6        30.02S
VICKSBURG VKS  MOSUNNY   70  57  64 CALM      30.02S
$$

MSZ059>079-031700-
SOUTH MISSISSIPPI

CITY           SKY/WX    TMP DP  RH WIND       PRES   REMARKS
BROOKHAVEN     CLOUDY   N/A N/A N/A NW8       30.02S
COLUMBIA       CLOUDY    68  61  77 N7        30.03S
HATTIESBURG    CLOUDY    71  61  70 NW10      29.99S
MCCOMB         CLOUDY    67  61  81 NE5       30.00S
NATCHEZ        CLOUDY    66  57  72 N6        30.03R
PINE BELT      CLOUDY    70  59  68 N8        30.00S
$$

MSZ080>082-031700-
COASTAL MISSISSIPPI

CITY           SKY/WX    TMP DP  RH WIND       PRES   REMARKS
BAY ST LOUIS   CLOUDY    72  63  73 VRB3      29.96F
BILOXI         PTSUNNY   77  70  78 VRB3      29.95R
PASCAGOULA     PTSUNNY   78  68  71 VRB5      29.95S
GULFPORT       PTSUNNY   74  67  78 VRB5      29.95S
$$




USA.gov is the U.S. government's official web portal to all federal, state and local government web resources and services.